VJC802 VTBS-VVTS

Flight info

Callsign VJC802
Flight time 1h 9m
Altitude 33000
Route GOMES1J GOMES N506 ELMOP R468 SAPEN/K0876F330 SAPEN5B
Aircraft A21N/M-SDE2E3FGHIRWXY/LB1

Departure

Time 2026-05-07 11:13
Airport Suvarnabhumi Airport (VTBS)

Arrival

Time 2026-05-07 12:23
Airport Tan Son Nhat International Airport (VVTS)
Time Latitude Longitude Altitude Speed Heading
2026-05-07 10:39 13.69068 100.75672 18 ft 0 kts 194°
2026-05-07 11:06 13.69089 100.75677 18 ft 4 kts 195°
2026-05-07 11:06 13.69115 100.75684 22 ft 4 kts 191°
2026-05-07 11:06 13.69141 100.75685 20 ft 4 kts 162°
2026-05-07 11:07 13.69153 100.75674 19 ft 4 kts 104°
2026-05-07 11:07 13.69157 100.75660 20 ft 0 kts 104°
2026-05-07 11:10 13.69154 100.75673 18 ft 4 kts 104°
2026-05-07 11:10 13.69144 100.75711 18 ft 7 kts 104°
2026-05-07 11:10 13.69132 100.75763 18 ft 8 kts 104°
2026-05-07 11:11 13.69117 100.75823 20 ft 9 kts 104°
2026-05-07 11:11 13.69099 100.75894 19 ft 11 kts 104°
2026-05-07 11:11 13.69084 100.75953 19 ft 0 kts 105°
2026-05-07 11:12 13.69080 100.75969 19 ft 4 kts 105°
2026-05-07 11:12 13.69071 100.76005 18 ft 7 kts 105°
2026-05-07 11:12 13.69049 100.76060 18 ft 10 kts 148°
2026-05-07 11:13 13.68945 100.76046 20 ft 30 kts 194°
2026-05-07 11:13 13.68488 100.75927 21 ft 105 kts 194°
2026-05-07 11:13 13.67558 100.75683 28 ft 170 kts 191°
2026-05-07 11:13 13.66382 100.75360 639 ft 178 kts 191°
2026-05-07 11:14 13.65161 100.75139 1403 ft 180 kts 181°
2026-05-07 11:14 13.63887 100.75182 1988 ft 188 kts 180°
2026-05-07 11:14 13.62539 100.75210 2410 ft 201 kts 180°
2026-05-07 11:14 13.61091 100.75229 2818 ft 214 kts 177°
2026-05-07 11:15 13.59577 100.75289 3200 ft 229 kts 169°
2026-05-07 11:15 13.58065 100.75950 3486 ft 247 kts 140°
2026-05-07 11:15 13.57023 100.77390 3884 ft 260 kts 109°
2026-05-07 11:15 13.56821 100.79248 4498 ft 265 kts 84°
2026-05-07 11:16 13.57099 100.81136 5229 ft 268 kts 82°
2026-05-07 11:16 13.57240 100.83025 5946 ft 269 kts 89°
2026-05-07 11:16 13.57264 100.84979 6643 ft 271 kts 90°
2026-05-07 11:16 13.57265 100.86912 7243 ft 275 kts 90°
2026-05-07 11:17 13.57258 100.88882 7913 ft 277 kts 90°
2026-05-07 11:17 13.57249 100.90875 8556 ft 279 kts 90°
2026-05-07 11:17 13.57238 100.92883 9165 ft 283 kts 90°
2026-05-07 11:17 13.57225 100.94929 9780 ft 286 kts 90°
2026-05-07 11:18 13.57212 100.96971 10261 ft 293 kts 90°
2026-05-07 11:18 13.57195 100.99130 10509 ft 309 kts 90°
2026-05-07 11:18 13.57176 101.01408 10726 ft 326 kts 90°
2026-05-07 11:18 13.57086 101.03793 10918 ft 343 kts 96°
2026-05-07 11:19 13.56688 101.06267 11103 ft 358 kts 100°
2026-05-07 11:19 13.56209 101.08846 11289 ft 373 kts 100°
2026-05-07 11:19 13.55721 101.11515 11494 ft 386 kts 100°
2026-05-07 11:19 13.55238 101.14221 11842 ft 392 kts 100°
2026-05-07 11:20 13.54751 101.17006 12291 ft 395 kts 100°
2026-05-07 11:20 13.54272 101.19763 12739 ft 398 kts 100°
2026-05-07 11:20 13.53787 101.22571 13194 ft 401 kts 100°
2026-05-07 11:20 13.53299 101.25412 13597 ft 405 kts 100°
2026-05-07 11:21 13.52807 101.28276 14029 ft 407 kts 99°
2026-05-07 11:21 13.52312 101.31147 14462 ft 409 kts 100°
2026-05-07 11:21 13.51802 101.34038 14830 ft 413 kts 101°
2026-05-07 11:21 13.50957 101.36871 15209 ft 416 kts 113°
2026-05-07 11:22 13.49691 101.39543 15627 ft 419 kts 117°
2026-05-07 11:22 13.48337 101.42213 16049 ft 421 kts 117°
2026-05-07 11:22 13.46974 101.44895 16461 ft 424 kts 117°
2026-05-07 11:22 13.45625 101.47570 16858 ft 426 kts 117°
2026-05-07 11:23 13.44262 101.50289 17273 ft 429 kts 117°
2026-05-07 11:23 13.42893 101.53023 17665 ft 432 kts 117°
2026-05-07 11:23 13.41516 101.55774 18048 ft 434 kts 117°
2026-05-07 11:23 13.40133 101.58539 18373 ft 436 kts 117°
2026-05-07 11:24 13.38764 101.61335 18700 ft 439 kts 116°
2026-05-07 11:24 13.37414 101.64156 19024 ft 441 kts 116°
2026-05-07 11:24 13.36056 101.66993 19351 ft 443 kts 116°
2026-05-07 11:24 13.34688 101.69836 19672 ft 444 kts 116°
2026-05-07 11:25 13.33312 101.72690 19999 ft 446 kts 116°
2026-05-07 11:25 13.31947 101.75517 20317 ft 448 kts 116°
2026-05-07 11:25 13.30561 101.78386 20632 ft 450 kts 116°
2026-05-07 11:25 13.29162 101.81281 20964 ft 452 kts 116°
2026-05-07 11:26 13.27754 101.84193 21293 ft 454 kts 116°
2026-05-07 11:26 13.26347 101.87100 21632 ft 456 kts 116°
2026-05-07 11:26 13.24946 101.89996 21969 ft 458 kts 115°
2026-05-07 11:26 13.23526 101.92935 22310 ft 460 kts 115°
2026-05-07 11:27 13.22095 101.95894 22648 ft 462 kts 115°
2026-05-07 11:27 13.20656 101.98868 22968 ft 465 kts 115°
2026-05-07 11:27 13.19208 102.01854 23281 ft 466 kts 115°
2026-05-07 11:27 13.17780 102.04802 23534 ft 468 kts 115°
2026-05-07 11:28 13.16326 102.07800 23755 ft 471 kts 115°
2026-05-07 11:28 13.14868 102.10809 23973 ft 472 kts 115°
2026-05-07 11:28 13.13401 102.13835 24174 ft 474 kts 115°
2026-05-07 11:28 13.11928 102.16872 24385 ft 476 kts 115°
2026-05-07 11:29 13.10447 102.19927 24607 ft 477 kts 115°
2026-05-07 11:29 13.08965 102.22983 24873 ft 477 kts 115°
2026-05-07 11:29 13.07481 102.26037 25150 ft 477 kts 115°
2026-05-07 11:29 13.06021 102.29041 25410 ft 476 kts 115°
2026-05-07 11:30 13.04539 102.32094 25697 ft 476 kts 115°
2026-05-07 11:30 13.03064 102.35130 25977 ft 475 kts 115°
2026-05-07 11:30 13.01590 102.38158 26255 ft 475 kts 115°
2026-05-07 11:30 13.00112 102.41194 26551 ft 474 kts 116°
2026-05-07 11:31 12.98635 102.44230 26809 ft 475 kts 116°
2026-05-07 11:31 12.97176 102.47228 27071 ft 475 kts 116°
2026-05-07 11:31 12.95643 102.50228 27335 ft 475 kts 119°
2026-05-07 11:31 12.93938 102.53133 27617 ft 475 kts 120°
2026-05-07 11:32 12.90868 102.58285 28095 ft 475 kts 121°
2026-05-07 11:32 12.89147 102.61171 28368 ft 475 kts 121°
2026-05-07 11:32 12.87426 102.64060 28640 ft 474 kts 121°
2026-05-07 11:33 12.85703 102.66951 28907 ft 474 kts 121°
2026-05-07 11:33 12.83984 102.69839 29174 ft 474 kts 121°
2026-05-07 11:33 12.82269 102.72721 29438 ft 473 kts 121°
2026-05-07 11:33 12.80580 102.75559 29716 ft 473 kts 120°
2026-05-07 11:34 12.78863 102.78445 29946 ft 473 kts 121°
2026-05-07 11:34 12.77149 102.81322 30150 ft 473 kts 120°
2026-05-07 11:34 12.75430 102.84208 30375 ft 472 kts 121°
2026-05-07 11:34 12.73718 102.87077 30591 ft 472 kts 121°
2026-05-07 11:35 12.72005 102.89949 30779 ft 473 kts 121°
2026-05-07 11:35 12.70288 102.92823 30997 ft 472 kts 120°
2026-05-07 11:35 12.68578 102.95688 31213 ft 471 kts 121°
2026-05-07 11:35 12.66865 102.98558 31407 ft 471 kts 121°
2026-05-07 11:36 12.65169 103.01395 31601 ft 471 kts 121°
2026-05-07 11:36 12.63456 103.04263 31806 ft 471 kts 121°
2026-05-07 11:36 12.61744 103.07126 32001 ft 471 kts 121°
2026-05-07 11:36 12.60031 103.09992 32184 ft 471 kts 121°
2026-05-07 11:37 12.58339 103.12822 32371 ft 471 kts 121°
2026-05-07 11:37 12.56606 103.15718 32543 ft 471 kts 121°
2026-05-07 11:37 12.54909 103.18550 32707 ft 471 kts 121°
2026-05-07 11:37 12.53191 103.21420 32826 ft 472 kts 121°
2026-05-07 11:38 12.51475 103.24285 32846 ft 471 kts 121°
2026-05-07 11:38 12.48046 103.30009 32816 ft 471 kts 120°
2026-05-07 11:39 12.44635 103.35699 32800 ft 471 kts 121°
2026-05-07 11:39 12.41213 103.41406 32814 ft 466 kts 121°
2026-05-07 11:40 12.37817 103.47058 32814 ft 466 kts 121°
2026-05-07 11:40 12.34424 103.52709 32808 ft 466 kts 121°
2026-05-07 11:41 12.31053 103.58318 32809 ft 466 kts 121°
2026-05-07 11:41 12.27657 103.63966 32825 ft 466 kts 121°
2026-05-07 11:42 12.24263 103.69606 32818 ft 466 kts 121°
2026-05-07 11:42 12.20852 103.75256 32822 ft 466 kts 121°
2026-05-07 11:43 12.17455 103.80858 32809 ft 466 kts 121°
2026-05-07 11:43 12.14035 103.86503 32804 ft 467 kts 121°
2026-05-07 11:44 12.10604 103.92165 32824 ft 469 kts 121°
2026-05-07 11:44 12.07178 103.97816 32818 ft 469 kts 121°
2026-05-07 11:45 12.03737 104.03486 32817 ft 468 kts 122°
2026-05-07 11:45 12.00303 104.09137 32805 ft 468 kts 122°
2026-05-07 11:46 11.96893 104.14742 32807 ft 467 kts 122°
2026-05-07 11:46 11.93457 104.20391 32810 ft 468 kts 122°
2026-05-07 11:47 11.90024 104.26034 32797 ft 470 kts 122°
2026-05-07 11:47 11.86562 104.31716 32797 ft 470 kts 122°
2026-05-07 11:48 11.83102 104.37398 32786 ft 470 kts 122°
2026-05-07 11:48 11.79659 104.43046 32782 ft 470 kts 122°
2026-05-07 11:49 11.76199 104.48717 32781 ft 470 kts 122°
2026-05-07 11:49 11.72758 104.54346 32776 ft 470 kts 122°
2026-05-07 11:50 11.69301 104.60009 32777 ft 470 kts 122°
2026-05-07 11:50 11.65831 104.65692 32769 ft 470 kts 122°
2026-05-07 11:51 11.62387 104.71319 32770 ft 470 kts 122°
2026-05-07 11:51 11.58923 104.76985 32772 ft 470 kts 122°
2026-05-07 11:52 11.55463 104.82646 32774 ft 470 kts 121°
2026-05-07 11:52 11.53106 104.87620 32774 ft 470 kts 111°
2026-05-07 11:53 11.50726 104.93799 32765 ft 470 kts 111°
2026-05-07 11:53 11.48317 105.00022 32775 ft 472 kts 111°
2026-05-07 11:54 11.45902 105.06230 32775 ft 472 kts 111°
2026-05-07 11:54 11.43481 105.12448 32773 ft 472 kts 111°
2026-05-07 11:55 11.41060 105.18661 32775 ft 471 kts 111°
2026-05-07 11:55 11.38635 105.24880 32774 ft 472 kts 111°
2026-05-07 11:56 11.36210 105.31101 32769 ft 472 kts 111°
2026-05-07 11:56 11.33795 105.37283 32769 ft 472 kts 111°
2026-05-07 11:57 11.31357 105.43511 32768 ft 472 kts 111°
2026-05-07 11:57 11.28928 105.49726 32769 ft 472 kts 111°
2026-05-07 11:58 11.26511 105.55910 32766 ft 472 kts 111°
2026-05-07 11:58 11.24078 105.62116 32767 ft 472 kts 111°
2026-05-07 11:59 11.21638 105.68336 32767 ft 473 kts 111°
2026-05-07 11:59 11.19197 105.74565 32770 ft 473 kts 111°
2026-05-07 12:00 11.16768 105.80760 32771 ft 473 kts 111°
2026-05-07 12:00 11.14319 105.86998 32770 ft 473 kts 111°
2026-05-07 12:00 11.13104 105.90091 32267 ft 469 kts 111°
2026-05-07 12:01 11.11884 105.93196 31325 ft 473 kts 111°
2026-05-07 12:01 11.10660 105.96310 30523 ft 475 kts 111°
2026-05-07 12:01 11.09447 105.99401 29740 ft 476 kts 111°
2026-05-07 12:01 11.08214 106.02539 28781 ft 477 kts 111°
2026-05-07 12:02 11.06977 106.05676 27870 ft 478 kts 111°
2026-05-07 12:02 11.05735 106.08832 26964 ft 479 kts 111°
2026-05-07 12:02 11.04493 106.11987 26057 ft 479 kts 111°
2026-05-07 12:02 11.03241 106.15128 25154 ft 478 kts 113°
2026-05-07 12:03 11.01679 106.18052 24328 ft 475 kts 124°
2026-05-07 12:03 10.99556 106.20614 23545 ft 472 kts 135°
2026-05-07 12:03 10.97143 106.22866 22672 ft 468 kts 138°
2026-05-07 12:03 10.94719 106.25053 21901 ft 462 kts 138°
2026-05-07 12:04 10.92332 106.27213 21175 ft 455 kts 137°
2026-05-07 12:04 10.89989 106.29349 20410 ft 449 kts 137°
2026-05-07 12:04 10.87671 106.31469 19669 ft 444 kts 137°
2026-05-07 12:04 10.85420 106.33533 18965 ft 438 kts 137°
2026-05-07 12:05 10.83170 106.35596 18271 ft 432 kts 137°
2026-05-07 12:05 10.80949 106.37623 17512 ft 426 kts 137°
2026-05-07 12:05 10.78754 106.39630 16848 ft 423 kts 137°
2026-05-07 12:05 10.76566 106.41632 16232 ft 420 kts 137°
2026-05-07 12:06 10.74401 106.43616 15630 ft 417 kts 137°
2026-05-07 12:06 10.72263 106.45573 15033 ft 415 kts 137°
2026-05-07 12:06 10.70130 106.47529 14433 ft 412 kts 137°
2026-05-07 12:06 10.67997 106.49485 13853 ft 410 kts 137°
2026-05-07 12:07 10.65887 106.51416 13434 ft 404 kts 137°
2026-05-07 12:07 10.63816 106.53311 13080 ft 395 kts 136°
2026-05-07 12:07 10.61796 106.55159 12761 ft 387 kts 136°
2026-05-07 12:07 10.59842 106.56957 12456 ft 379 kts 135°
2026-05-07 12:08 10.58149 106.58973 12150 ft 373 kts 122°
2026-05-07 12:08 10.56991 106.61317 11860 ft 370 kts 112°
2026-05-07 12:08 10.56047 106.63718 11589 ft 358 kts 110°
2026-05-07 12:08 10.55152 106.66032 11383 ft 344 kts 111°
2026-05-07 12:09 10.54296 106.68223 11208 ft 330 kts 111°
2026-05-07 12:09 10.53456 106.70352 11036 ft 316 kts 110°
2026-05-07 12:09 10.52651 106.72385 10880 ft 303 kts 111°
2026-05-07 12:09 10.51874 106.74338 10647 ft 293 kts 110°
2026-05-07 12:10 10.51109 106.76258 10203 ft 293 kts 110°
2026-05-07 12:10 10.50355 106.78152 9773 ft 292 kts 110°
2026-05-07 12:10 10.49593 106.80064 9312 ft 291 kts 110°
2026-05-07 12:10 10.48835 106.81964 8873 ft 289 kts 110°
2026-05-07 12:11 10.48097 106.83863 8455 ft 286 kts 106°
2026-05-07 12:11 10.47884 106.85823 8065 ft 278 kts 81°
2026-05-07 12:11 10.48307 106.87742 7622 ft 278 kts 75°
2026-05-07 12:11 10.48806 106.89620 7178 ft 278 kts 75°
2026-05-07 12:12 10.49296 106.91490 7019 ft 267 kts 75°
2026-05-07 12:12 10.49819 106.93242 6943 ft 252 kts 65°
2026-05-07 12:12 10.50790 106.94689 6677 ft 246 kts 44°
2026-05-07 12:12 10.52182 106.95646 6335 ft 246 kts 24°
2026-05-07 12:13 10.53847 106.96042 5929 ft 248 kts
2026-05-07 12:13 10.55566 106.95874 5535 ft 249 kts 352°
2026-05-07 12:13 10.57277 106.95539 5172 ft 249 kts 351°
2026-05-07 12:13 10.58978 106.95213 4819 ft 248 kts 352°
2026-05-07 12:14 10.60672 106.94904 4463 ft 248 kts 352°
2026-05-07 12:14 10.62372 106.94602 4111 ft 248 kts 352°
2026-05-07 12:14 10.64077 106.94307 3995 ft 248 kts 353°
2026-05-07 12:14 10.65761 106.94021 3982 ft 248 kts 353°
2026-05-07 12:15 10.67469 106.93734 3989 ft 248 kts 353°
2026-05-07 12:15 10.69175 106.93449 3994 ft 249 kts 353°
2026-05-07 12:15 10.70880 106.93165 3994 ft 248 kts 353°
2026-05-07 12:15 10.72584 106.92882 3999 ft 247 kts 353°
2026-05-07 12:16 10.74282 106.92600 4002 ft 248 kts 353°
2026-05-07 12:16 10.75996 106.92313 4003 ft 248 kts 353°
2026-05-07 12:16 10.77696 106.92030 4002 ft 247 kts 353°
2026-05-07 12:16 10.79402 106.91749 4000 ft 248 kts 353°
2026-05-07 12:17 10.81081 106.91472 4003 ft 248 kts 353°
2026-05-07 12:17 10.82793 106.91188 4002 ft 249 kts 353°
2026-05-07 12:17 10.84505 106.90902 4000 ft 250 kts 352°
2026-05-07 12:17 10.86181 106.90418 3984 ft 253 kts 330°
2026-05-07 12:18 10.87405 106.89150 3987 ft 256 kts 297°
2026-05-07 12:18 10.87860 106.87417 4006 ft 254 kts 276°
2026-05-07 12:18 10.88039 106.85632 3988 ft 249 kts 274°
2026-05-07 12:18 10.87822 106.83967 3807 ft 232 kts 241°
2026-05-07 12:19 10.86924 106.82649 3513 ft 223 kts 228°
2026-05-07 12:19 10.86085 106.81347 3236 ft 217 kts 247°
2026-05-07 12:19 10.85747 106.79896 2942 ft 210 kts 262°
2026-05-07 12:19 10.85727 106.78476 2859 ft 194 kts 270°
2026-05-07 12:20 10.85807 106.77114 2513 ft 191 kts 270°
2026-05-07 12:20 10.85768 106.75806 2214 ft 183 kts 262°
2026-05-07 12:20 10.85579 106.74527 2059 ft 182 kts 252°
2026-05-07 12:20 10.85174 106.73355 1849 ft 174 kts 245°
2026-05-07 12:21 10.84749 106.72211 1574 ft 167 kts 245°
2026-05-07 12:21 10.84351 106.71176 1343 ft 152 kts 244°
2026-05-07 12:21 10.83944 106.70179 997 ft 152 kts 244°
2026-05-07 12:21 10.83588 106.69189 678 ft 148 kts 245°
2026-05-07 12:22 10.83222 106.68236 454 ft 148 kts 244°
2026-05-07 12:22 10.82849 106.67263 280 ft 147 kts 245°
2026-05-07 12:22 10.82478 106.66299 73 ft 144 kts 244°
2026-05-07 12:22 10.82138 106.65406 43 ft 112 kts 247°
2026-05-07 12:23 10.81936 106.64866 42 ft 54 kts 248°
2026-05-07 12:23 10.81796 106.64645 43 ft 36 kts 221°
2026-05-07 12:23 10.81653 106.64518 44 ft 25 kts 220°
2026-05-07 12:23 10.81572 106.64379 40 ft 23 kts 251°
2026-05-07 12:24 10.81503 106.64308 42 ft 15 kts 161°
2026-05-07 12:24 10.81397 106.64347 43 ft 17 kts 159°
2026-05-07 12:24 10.81284 106.64392 41 ft 18 kts 159°
2026-05-07 12:24 10.81270 106.64500 44 ft 20 kts 69°
2026-05-07 12:25 10.81319 106.64634 46 ft 21 kts 70°
2026-05-07 12:25 10.81371 106.64777 47 ft 22 kts 69°
2026-05-07 12:25 10.81429 106.64929 48 ft 23 kts 69°
2026-05-07 12:25 10.81489 106.65086 44 ft 24 kts 69°
2026-05-07 12:26 10.81550 106.65249 43 ft 25 kts 69°
2026-05-07 12:26 10.81612 106.65416 40 ft 26 kts 69°
2026-05-07 12:26 10.81677 106.65588 41 ft 26 kts 69°
2026-05-07 12:26 10.81727 106.65726 40 ft 13 kts 73°
2026-05-07 12:27 10.81696 106.65812 39 ft 14 kts 117°
2026-05-07 12:27 10.81684 106.65905 42 ft 15 kts 71°
2026-05-07 12:27 10.81721 106.66005 42 ft 16 kts 70°
2026-05-07 12:27 10.81761 106.66110 43 ft 16 kts 69°
2026-05-07 12:28 10.81802 106.66219 42 ft 17 kts 69°
2026-05-07 12:28 10.81817 106.66257 42 ft 4 kts 71°
2026-05-07 12:28 10.81801 106.66283 42 ft 5 kts 156°
2026-05-07 12:28 10.81772 106.66296 42 ft 4 kts 156°
2026-05-07 12:29 10.81747 106.66306 42 ft 4 kts 159°
2026-05-07 12:29 10.81738 106.66309 42 ft 0 kts 159°
2026-05-07 12:29 10.81736 106.66310 42 ft 1 kts 160°